Year,Month,Day,Hour,Minute,Value (Times are PST for temperature in C)
2015,04,13,00,00,5.90
2015,04,13,00,01,5.90
2015,04,13,00,02,5.90
2015,04,13,00,03,5.90
2015,04,13,00,04,5.90
2015,04,13,00,05,5.90
2015,04,13,00,06,5.90
2015,04,13,00,07,5.90
2015,04,13,00,08,5.90
2015,04,13,00,09,5.90
2015,04,13,00,10,5.90
2015,04,13,00,11,5.80
2015,04,13,00,12,5.80
2015,04,13,00,13,5.80
2015,04,13,00,14,5.80
2015,04,13,00,15,5.80
2015,04,13,00,16,5.80
2015,04,13,00,17,5.80
2015,04,13,00,19,5.80
2015,04,13,00,20,5.80
2015,04,13,00,21,5.80
2015,04,13,00,22,5.80
2015,04,13,00,23,5.80
2015,04,13,00,24,5.80
2015,04,13,00,25,5.80
2015,04,13,00,26,5.80
2015,04,13,00,27,5.80
2015,04,13,00,28,5.80
2015,04,13,00,29,5.80
2015,04,13,00,30,5.80
2015,04,13,00,31,5.80
2015,04,13,00,32,5.80
2015,04,13,00,33,5.80
2015,04,13,00,34,5.80
2015,04,13,00,35,5.80
2015,04,13,00,36,5.80
2015,04,13,00,37,5.80
2015,04,13,00,38,5.70
2015,04,13,00,39,5.80
2015,04,13,00,40,5.70
2015,04,13,00,41,5.70
2015,04,13,00,42,5.70
2015,04,13,00,43,5.70
2015,04,13,00,44,5.70
2015,04,13,00,45,5.70
2015,04,13,00,46,5.70
2015,04,13,00,47,5.70
2015,04,13,00,48,5.70
2015,04,13,00,49,5.70
2015,04,13,00,50,5.70
2015,04,13,00,52,5.60
2015,04,13,00,53,5.60
2015,04,13,00,54,5.60
2015,04,13,00,55,5.60
2015,04,13,00,56,5.60
2015,04,13,00,57,5.60
2015,04,13,00,58,5.60
2015,04,13,01,00,5.60
2015,04,13,01,01,5.60
2015,04,13,01,03,5.60
2015,04,13,01,04,5.60
2015,04,13,01,05,5.60
2015,04,13,01,06,5.50
2015,04,13,01,07,5.50
2015,04,13,01,08,5.50
2015,04,13,01,09,5.50
2015,04,13,01,10,5.50
2015,04,13,01,11,5.50
2015,04,13,01,12,5.50
2015,04,13,01,13,5.40
2015,04,13,01,14,5.40
2015,04,13,01,15,5.40
2015,04,13,01,16,5.50
2015,04,13,01,17,5.40
2015,04,13,01,18,5.40
2015,04,13,01,19,5.40
2015,04,13,01,20,5.40
2015,04,13,01,21,5.40
2015,04,13,01,22,5.40
2015,04,13,01,23,5.40
2015,04,13,01,24,5.40
2015,04,13,01,25,5.40
2015,04,13,01,26,5.40
2015,04,13,01,27,5.40
2015,04,13,01,28,5.40
2015,04,13,01,29,5.40
2015,04,13,01,30,5.40
2015,04,13,01,31,5.40
2015,04,13,01,32,5.40
2015,04,13,01,33,5.40
2015,04,13,01,34,5.40
2015,04,13,01,35,5.40
2015,04,13,01,36,5.40
2015,04,13,01,37,5.40
2015,04,13,01,38,5.40
2015,04,13,01,39,5.40
2015,04,13,01,40,5.40
2015,04,13,01,41,5.40
2015,04,13,01,42,5.40
2015,04,13,01,43,5.40
2015,04,13,01,44,5.40
2015,04,13,01,45,5.40
2015,04,13,01,46,5.40
2015,04,13,01,47,5.40
2015,04,13,01,48,5.40
2015,04,13,01,49,5.40
2015,04,13,01,50,5.40
2015,04,13,01,51,5.40
2015,04,13,01,52,5.40
2015,04,13,01,53,5.40
2015,04,13,01,55,5.40
2015,04,13,01,56,5.40
2015,04,13,01,57,5.40
2015,04,13,01,58,5.40
2015,04,13,02,00,5.40
2015,04,13,02,01,5.30
2015,04,13,02,02,5.30
2015,04,13,02,03,5.40
2015,04,13,02,04,5.40
2015,04,13,02,05,5.30
2015,04,13,02,06,5.30
2015,04,13,02,07,5.40
2015,04,13,02,08,5.30
2015,04,13,02,09,5.30
2015,04,13,02,10,5.40
2015,04,13,02,11,5.40
2015,04,13,02,12,5.40
2015,04,13,02,13,5.40
2015,04,13,02,14,5.40
2015,04,13,02,15,5.40
2015,04,13,02,16,5.30
2015,04,13,02,17,5.40
2015,04,13,02,18,5.40
2015,04,13,02,19,5.40
2015,04,13,02,20,5.40
2015,04,13,02,21,5.40
2015,04,13,02,22,5.40
2015,04,13,02,23,5.40
2015,04,13,02,24,5.40
2015,04,13,02,25,5.40
2015,04,13,02,26,5.40
2015,04,13,02,27,5.40
2015,04,13,02,28,5.40
2015,04,13,02,29,5.40
2015,04,13,02,30,5.40
2015,04,13,02,31,5.40
2015,04,13,02,32,5.40
2015,04,13,02,33,5.40
2015,04,13,02,34,5.40
2015,04,13,02,35,5.40
2015,04,13,02,36,5.40
2015,04,13,02,37,5.40
2015,04,13,02,38,5.40
2015,04,13,02,39,5.40
2015,04,13,02,40,5.40
2015,04,13,02,41,5.40
2015,04,13,02,43,5.40
2015,04,13,02,44,5.40
2015,04,13,02,45,5.40
2015,04,13,02,46,5.40
2015,04,13,02,47,5.40
2015,04,13,02,48,5.40
2015,04,13,02,49,5.40
2015,04,13,02,50,5.40
2015,04,13,02,52,5.40
2015,04,13,02,53,5.40
2015,04,13,02,54,5.40
2015,04,13,02,55,5.40
2015,04,13,02,56,5.40
2015,04,13,02,57,5.40
2015,04,13,02,58,5.40
2015,04,13,02,59,5.40
2015,04,13,03,00,5.40
2015,04,13,03,01,5.40
2015,04,13,03,02,5.40
2015,04,13,03,03,5.40
2015,04,13,03,04,5.40
2015,04,13,03,06,5.40
2015,04,13,03,07,5.40
2015,04,13,03,08,5.40
2015,04,13,03,09,5.40
2015,04,13,03,10,5.40
2015,04,13,03,11,5.40
2015,04,13,03,12,5.40
2015,04,13,03,13,5.40
2015,04,13,03,14,5.40
2015,04,13,03,15,5.40
2015,04,13,03,16,5.40
2015,04,13,03,17,5.40
2015,04,13,03,19,5.40
2015,04,13,03,20,5.30
2015,04,13,03,21,5.30
2015,04,13,03,22,5.30
2015,04,13,03,23,5.30
2015,04,13,03,24,5.30
2015,04,13,03,25,5.30
2015,04,13,03,26,5.30
2015,04,13,03,27,5.30
2015,04,13,03,28,5.30
2015,04,13,03,29,5.30
2015,04,13,03,30,5.30
2015,04,13,03,31,5.30
2015,04,13,03,32,5.30
2015,04,13,03,33,5.30
2015,04,13,03,34,5.30
2015,04,13,03,35,5.30
2015,04,13,03,36,5.30
2015,04,13,03,37,5.30
2015,04,13,03,38,5.30
2015,04,13,03,39,5.30
2015,04,13,03,40,5.30
2015,04,13,03,41,5.30
2015,04,13,03,42,5.30
2015,04,13,03,43,5.30
2015,04,13,03,44,5.30
2015,04,13,03,45,5.30
2015,04,13,03,46,5.30
2015,04,13,03,47,5.30
2015,04,13,03,48,5.30
2015,04,13,03,49,5.30
2015,04,13,03,50,5.30
2015,04,13,03,51,5.30
2015,04,13,03,52,5.30
2015,04,13,03,53,5.30
2015,04,13,03,54,5.30
2015,04,13,03,55,5.30
2015,04,13,03,56,5.30
2015,04,13,03,57,5.30
2015,04,13,03,58,5.30
2015,04,13,03,59,5.30
2015,04,13,04,00,5.30
2015,04,13,04,01,5.20
2015,04,13,04,02,5.30
2015,04,13,04,03,5.30
2015,04,13,04,04,5.30
2015,04,13,04,05,5.30
2015,04,13,04,06,5.30
2015,04,13,04,07,5.30
2015,04,13,04,08,5.30
2015,04,13,04,09,5.30
2015,04,13,04,10,5.30
2015,04,13,04,11,5.30
2015,04,13,04,12,5.20
2015,04,13,04,13,5.30
2015,04,13,04,14,5.20
2015,04,13,04,15,5.30
2015,04,13,04,16,5.20
2015,04,13,04,18,5.30
2015,04,13,04,19,5.20
2015,04,13,04,20,5.20
2015,04,13,04,21,5.20
2015,04,13,04,22,5.20
2015,04,13,04,23,5.20
2015,04,13,04,24,5.20
2015,04,13,04,25,5.20
2015,04,13,04,26,5.20
2015,04,13,04,27,5.20
2015,04,13,04,28,5.20
2015,04,13,04,29,5.20
2015,04,13,04,30,5.20
2015,04,13,04,31,5.20
2015,04,13,04,32,5.20
2015,04,13,04,33,5.20
2015,04,13,04,34,5.20
2015,04,13,04,35,5.20
2015,04,13,04,36,5.20
2015,04,13,04,37,5.20
2015,04,13,04,38,5.20
2015,04,13,04,39,5.20
2015,04,13,04,40,5.20
2015,04,13,04,41,5.20
2015,04,13,04,42,5.20
2015,04,13,04,43,5.20
2015,04,13,04,44,5.20
2015,04,13,04,45,5.20
2015,04,13,04,46,5.20
2015,04,13,04,47,5.20
2015,04,13,04,48,5.20
2015,04,13,04,49,5.20
2015,04,13,04,50,5.20
2015,04,13,04,51,5.20
2015,04,13,04,52,5.20
2015,04,13,04,53,5.20
2015,04,13,04,54,5.20
2015,04,13,04,55,5.20
2015,04,13,04,56,5.20
2015,04,13,04,57,5.20
2015,04,13,04,58,5.30
2015,04,13,04,59,5.20
2015,04,13,05,00,5.20
2015,04,13,05,01,5.20
2015,04,13,05,02,5.20
2015,04,13,05,04,5.20
2015,04,13,05,05,5.20
2015,04,13,05,06,5.20
2015,04,13,05,07,5.20
2015,04,13,05,08,5.20
2015,04,13,05,09,5.20
2015,04,13,05,10,5.20
2015,04,13,05,11,5.20
2015,04,13,05,12,5.20
2015,04,13,05,13,5.20
2015,04,13,05,14,5.20
2015,04,13,05,15,5.20
2015,04,13,05,16,5.20
2015,04,13,05,17,5.20
2015,04,13,05,18,5.20
2015,04,13,05,19,5.20
2015,04,13,05,20,5.30
2015,04,13,05,21,5.30
2015,04,13,05,22,5.30
2015,04,13,05,23,5.30
2015,04,13,05,25,5.30
2015,04,13,05,26,5.30
2015,04,13,05,27,5.30
2015,04,13,05,28,5.30
2015,04,13,05,29,5.30
2015,04,13,05,30,5.30
2015,04,13,05,32,5.30
2015,04,13,05,33,5.30
2015,04,13,05,34,5.30
2015,04,13,05,35,5.30
2015,04,13,05,36,5.30
2015,04,13,05,37,5.30
2015,04,13,05,38,5.30
2015,04,13,05,39,5.30
2015,04,13,05,40,5.30
2015,04,13,05,41,5.30
2015,04,13,05,42,5.30
2015,04,13,05,43,5.30
2015,04,13,05,44,5.30
2015,04,13,05,45,5.30
2015,04,13,05,46,5.30
2015,04,13,05,47,5.30
2015,04,13,05,48,5.30
2015,04,13,05,49,5.30
2015,04,13,05,50,5.30
2015,04,13,05,51,5.30
2015,04,13,05,53,5.30
2015,04,13,05,54,5.30
2015,04,13,05,55,5.30
2015,04,13,05,56,5.30
2015,04,13,05,57,5.30
2015,04,13,05,58,5.30
2015,04,13,05,59,5.30
2015,04,13,06,00,5.30
2015,04,13,06,01,5.30
2015,04,13,06,02,5.30
2015,04,13,06,03,5.30
2015,04,13,06,04,5.30
2015,04,13,06,06,5.30
2015,04,13,06,07,5.30
2015,04,13,06,08,5.30
2015,04,13,06,09,5.30
2015,04,13,06,10,5.30
2015,04,13,06,11,5.30
2015,04,13,06,12,5.30
2015,04,13,06,13,5.30
2015,04,13,06,14,5.30
2015,04,13,06,15,5.30
2015,04,13,06,16,5.30
2015,04,13,06,17,5.30
2015,04,13,06,18,5.30
2015,04,13,06,19,5.30
2015,04,13,06,20,5.30
2015,04,13,06,22,5.30
2015,04,13,06,23,5.30
2015,04,13,06,24,5.30
2015,04,13,06,25,5.30
2015,04,13,06,26,5.30
2015,04,13,06,27,5.30
2015,04,13,06,28,5.30
2015,04,13,06,29,5.30
2015,04,13,06,30,5.30
2015,04,13,06,31,5.30
2015,04,13,06,32,5.30
2015,04,13,06,33,5.30
2015,04,13,06,34,5.30
2015,04,13,06,35,5.30
2015,04,13,06,37,5.30
2015,04,13,06,38,5.30
2015,04,13,06,39,5.30
2015,04,13,06,40,5.30
2015,04,13,06,41,5.30
2015,04,13,06,42,5.30
2015,04,13,06,43,5.30
2015,04,13,06,44,5.30
2015,04,13,06,45,5.30
2015,04,13,06,46,5.30
2015,04,13,06,47,5.30
2015,04,13,06,48,5.30
2015,04,13,06,49,5.30
2015,04,13,06,50,5.40
2015,04,13,06,51,5.40
2015,04,13,06,52,5.40
2015,04,13,06,53,5.40
2015,04,13,06,54,5.40
2015,04,13,06,55,5.40
2015,04,13,06,56,5.40
2015,04,13,06,57,5.40
2015,04,13,06,58,5.40
2015,04,13,06,59,5.40
2015,04,13,07,00,5.40
2015,04,13,07,01,5.40
2015,04,13,07,02,5.40
2015,04,13,07,03,5.40
2015,04,13,07,04,5.40
2015,04,13,07,05,5.40
2015,04,13,07,06,5.40
2015,04,13,07,07,5.30
2015,04,13,07,08,5.30
2015,04,13,07,09,5.40
2015,04,13,07,10,5.40
2015,04,13,07,11,5.30
2015,04,13,07,12,5.30
2015,04,13,07,13,5.30
2015,04,13,07,14,5.30
2015,04,13,07,15,5.30
2015,04,13,07,16,5.30
2015,04,13,07,17,5.30
2015,04,13,07,18,5.30
2015,04,13,07,19,5.30
2015,04,13,07,20,5.30
2015,04,13,07,21,5.40
2015,04,13,07,22,5.30
2015,04,13,07,23,5.40
2015,04,13,07,24,5.40
2015,04,13,07,25,5.40
2015,04,13,07,26,5.40
2015,04,13,07,27,5.40
2015,04,13,07,28,5.40
2015,04,13,07,29,5.40
2015,04,13,07,30,5.40
2015,04,13,07,31,5.40
2015,04,13,07,32,5.40
2015,04,13,07,33,5.40
2015,04,13,07,34,5.40
2015,04,13,07,35,5.40
2015,04,13,07,36,5.50
2015,04,13,07,37,5.50
2015,04,13,07,38,5.50
2015,04,13,07,39,5.50
2015,04,13,07,40,5.50
2015,04,13,07,41,5.60
2015,04,13,07,42,5.60
2015,04,13,07,43,5.60
2015,04,13,07,44,5.60
2015,04,13,07,45,5.60
2015,04,13,07,46,5.60
2015,04,13,07,47,5.60
2015,04,13,07,48,5.60
2015,04,13,07,49,5.60
2015,04,13,07,50,5.60
2015,04,13,07,51,5.60
2015,04,13,07,52,5.60
2015,04,13,07,53,5.60
2015,04,13,07,54,5.60
2015,04,13,07,55,5.60
2015,04,13,07,56,5.60
2015,04,13,07,57,5.60
2015,04,13,07,58,5.60
2015,04,13,07,59,5.60
2015,04,13,08,00,5.60
2015,04,13,08,01,5.60
2015,04,13,08,02,5.60
2015,04,13,08,03,5.70
2015,04,13,08,04,5.70
2015,04,13,08,05,5.70
2015,04,13,08,06,5.70
2015,04,13,08,07,5.70
2015,04,13,08,09,5.70
2015,04,13,08,10,5.70
2015,04,13,08,11,5.70
2015,04,13,08,12,5.70
2015,04,13,08,13,5.70
2015,04,13,08,14,5.70
2015,04,13,08,15,5.70
2015,04,13,08,16,5.70
2015,04,13,08,17,5.70
2015,04,13,08,18,5.70
2015,04,13,08,19,5.70
2015,04,13,08,20,5.70
2015,04,13,08,21,5.70
2015,04,13,08,22,5.70
2015,04,13,08,23,5.70
2015,04,13,08,24,5.70
2015,04,13,08,26,5.70
2015,04,13,08,27,5.70
2015,04,13,08,28,5.70
2015,04,13,08,29,5.70
2015,04,13,08,30,5.70
2015,04,13,08,31,5.80
2015,04,13,08,32,5.80
2015,04,13,08,33,5.80
2015,04,13,08,34,5.80
2015,04,13,08,35,5.80
2015,04,13,08,36,5.80
2015,04,13,08,37,5.80
2015,04,13,08,38,5.80
2015,04,13,08,39,5.80
2015,04,13,08,40,5.80
2015,04,13,08,41,5.80
2015,04,13,08,42,5.80
2015,04,13,08,43,5.80
2015,04,13,08,44,5.80
2015,04,13,08,45,5.80
2015,04,13,08,46,5.80
2015,04,13,08,47,5.80
2015,04,13,08,48,5.90
2015,04,13,08,49,5.90
2015,04,13,08,50,5.90
2015,04,13,08,51,5.90
2015,04,13,08,52,5.90
2015,04,13,08,53,5.90
2015,04,13,08,54,5.90
2015,04,13,08,55,5.90
2015,04,13,08,56,5.90
2015,04,13,08,57,5.90
2015,04,13,08,58,5.90
2015,04,13,08,59,5.90
2015,04,13,09,00,5.90
2015,04,13,09,01,5.90
2015,04,13,09,02,5.90
2015,04,13,09,03,5.90
2015,04,13,09,04,5.90
2015,04,13,09,05,5.90
2015,04,13,09,06,6.00
2015,04,13,09,07,6.00
2015,04,13,09,08,6.00
2015,04,13,09,09,6.00
2015,04,13,09,10,6.00
2015,04,13,09,12,6.00
2015,04,13,09,13,6.00
2015,04,13,09,14,6.10
2015,04,13,09,15,6.10
2015,04,13,09,16,6.10
2015,04,13,09,17,6.10
2015,04,13,09,18,6.10
2015,04,13,09,19,6.10
2015,04,13,09,20,6.10
2015,04,13,09,21,6.10
2015,04,13,09,22,6.10
2015,04,13,09,23,6.10
2015,04,13,09,24,6.10
2015,04,13,09,25,6.10
2015,04,13,09,26,6.10
2015,04,13,09,27,6.10
2015,04,13,09,28,6.10
2015,04,13,09,29,6.10
2015,04,13,09,30,6.10
2015,04,13,09,31,6.10
2015,04,13,09,32,6.10
2015,04,13,09,33,6.10
2015,04,13,09,34,6.10
2015,04,13,09,35,6.10
2015,04,13,09,36,6.20
2015,04,13,09,37,6.20
2015,04,13,09,38,6.20
2015,04,13,09,39,6.20
2015,04,13,09,40,6.20
2015,04,13,09,41,6.20
2015,04,13,09,42,6.20
2015,04,13,09,43,6.20
2015,04,13,09,44,6.20
2015,04,13,09,45,6.20
2015,04,13,09,46,6.30
2015,04,13,09,47,6.30
2015,04,13,09,48,6.30
2015,04,13,09,49,6.30
2015,04,13,09,50,6.30
2015,04,13,09,51,6.30
2015,04,13,09,52,6.30
2015,04,13,09,53,6.30
2015,04,13,09,54,6.30
2015,04,13,09,55,6.30
2015,04,13,09,56,6.30
2015,04,13,09,57,6.30
2015,04,13,09,58,6.30
2015,04,13,09,59,6.30
2015,04,13,10,00,6.30
2015,04,13,10,01,6.30
2015,04,13,10,02,6.30
2015,04,13,10,04,6.30
2015,04,13,10,05,6.30
2015,04,13,10,06,6.30
2015,04,13,10,07,6.30
2015,04,13,10,08,6.20
2015,04,13,10,09,6.20
2015,04,13,10,10,6.20
2015,04,13,10,11,6.20
2015,04,13,10,12,6.20
2015,04,13,10,13,6.20
2015,04,13,10,14,6.10
2015,04,13,10,15,6.20
2015,04,13,10,16,6.20
2015,04,13,10,17,6.20
2015,04,13,10,18,6.20
2015,04,13,10,19,6.20
2015,04,13,10,20,6.20
2015,04,13,10,21,6.20
2015,04,13,10,22,6.20
2015,04,13,10,23,6.10
2015,04,13,10,24,6.10
2015,04,13,10,25,6.10
2015,04,13,10,26,6.10
2015,04,13,10,27,6.10
2015,04,13,10,28,6.10
2015,04,13,10,29,6.10
2015,04,13,10,30,6.10
2015,04,13,10,31,6.10
2015,04,13,10,32,6.10
2015,04,13,10,33,6.00
2015,04,13,10,34,6.00
2015,04,13,10,35,6.00
2015,04,13,10,36,5.90
2015,04,13,10,37,5.90
2015,04,13,10,38,5.90
2015,04,13,10,39,5.90
2015,04,13,10,40,5.90
2015,04,13,10,41,5.90
2015,04,13,10,42,5.80
2015,04,13,10,43,5.80
2015,04,13,10,44,5.80
2015,04,13,10,45,5.70
2015,04,13,10,46,5.70
2015,04,13,10,47,5.60
2015,04,13,10,48,5.60
2015,04,13,10,49,5.50
2015,04,13,10,50,5.50
2015,04,13,10,51,5.40
2015,04,13,10,52,5.40
2015,04,13,10,53,5.40
2015,04,13,10,54,5.40
2015,04,13,10,55,5.30
2015,04,13,10,56,5.30
2015,04,13,10,57,5.30
2015,04,13,10,58,5.30
2015,04,13,10,59,5.20
2015,04,13,11,00,5.20
2015,04,13,11,01,5.20
2015,04,13,11,02,5.20
2015,04,13,11,03,5.20
2015,04,13,11,04,5.20
2015,04,13,11,05,5.10
2015,04,13,11,06,5.10
2015,04,13,11,07,5.10
2015,04,13,11,08,5.10
2015,04,13,11,09,5.10
2015,04,13,11,10,5.10
2015,04,13,11,11,5.20
2015,04,13,11,12,5.20
2015,04,13,11,13,5.20
2015,04,13,11,14,5.20
2015,04,13,11,15,5.20
2015,04,13,11,16,5.30
2015,04,13,11,17,5.30
2015,04,13,11,18,5.30
2015,04,13,11,19,5.30
2015,04,13,11,20,5.30
2015,04,13,11,21,5.30
2015,04,13,11,22,5.30
2015,04,13,11,23,5.30
2015,04,13,11,24,5.30
2015,04,13,11,25,5.30
2015,04,13,11,26,5.30
2015,04,13,11,27,5.20
2015,04,13,11,28,5.20
2015,04,13,11,29,5.20
2015,04,13,11,30,5.20
2015,04,13,11,31,5.20
2015,04,13,11,32,5.20
2015,04,13,11,33,5.20
2015,04,13,11,34,5.20
2015,04,13,11,35,5.20
2015,04,13,11,36,5.20
2015,04,13,11,37,5.20
2015,04,13,11,38,5.20
2015,04,13,11,39,5.20
2015,04,13,11,40,5.20
2015,04,13,11,41,5.20
2015,04,13,11,42,5.20
2015,04,13,11,43,5.20
2015,04,13,11,44,5.20
2015,04,13,11,45,5.20
2015,04,13,11,46,5.20
2015,04,13,11,47,5.20
2015,04,13,11,48,5.10
2015,04,13,11,49,5.10
2015,04,13,11,50,5.10
2015,04,13,11,51,5.10
2015,04,13,11,52,5.10
2015,04,13,11,53,5.10
2015,04,13,11,54,5.00
2015,04,13,11,55,5.00
2015,04,13,11,56,5.00
2015,04,13,11,57,5.00
2015,04,13,11,58,5.00
2015,04,13,11,59,5.00
2015,04,13,12,00,4.90
2015,04,13,12,01,4.90
2015,04,13,12,02,4.90
2015,04,13,12,03,4.90
2015,04,13,12,04,4.90
2015,04,13,12,05,4.90
2015,04,13,12,06,4.90
2015,04,13,12,07,4.80
2015,04,13,12,08,4.90
2015,04,13,12,10,4.80
2015,04,13,12,11,4.80
2015,04,13,12,12,4.80
2015,04,13,12,13,4.80
2015,04,13,12,14,4.80
2015,04,13,12,15,4.80
2015,04,13,12,16,4.80
2015,04,13,12,17,4.70
2015,04,13,12,18,4.70
2015,04,13,12,19,4.70
2015,04,13,12,20,4.70
2015,04,13,12,21,4.70
2015,04,13,12,22,4.70
2015,04,13,12,23,4.70
2015,04,13,12,24,4.70
2015,04,13,12,25,4.70
2015,04,13,12,26,4.70
2015,04,13,12,27,4.70
2015,04,13,12,28,4.70
2015,04,13,12,29,4.70
2015,04,13,12,30,4.70
2015,04,13,12,31,4.70
2015,04,13,12,32,4.60
2015,04,13,12,33,4.60
2015,04,13,12,34,4.60
2015,04,13,12,35,4.60
2015,04,13,12,36,4.60
2015,04,13,12,37,4.60
2015,04,13,12,38,4.60
2015,04,13,12,39,4.60
2015,04,13,12,40,4.60
2015,04,13,12,41,4.60
2015,04,13,12,42,4.60
2015,04,13,12,43,4.60
2015,04,13,12,44,4.60
2015,04,13,12,45,4.60
2015,04,13,12,46,4.60
2015,04,13,12,47,4.60
2015,04,13,12,48,4.60
2015,04,13,12,49,4.60
2015,04,13,12,50,4.60
2015,04,13,12,51,4.60
2015,04,13,12,52,4.60
2015,04,13,12,53,4.60
2015,04,13,12,54,4.60
2015,04,13,12,55,4.60
2015,04,13,12,56,4.70
2015,04,13,12,57,4.70
2015,04,13,12,58,4.70
2015,04,13,12,59,4.70
2015,04,13,13,00,4.70
2015,04,13,13,01,4.70
2015,04,13,13,02,4.70
2015,04,13,13,03,4.70
2015,04,13,13,04,4.70
2015,04,13,13,05,4.70
2015,04,13,13,06,4.80
2015,04,13,13,07,4.70
2015,04,13,13,08,4.80
2015,04,13,13,09,4.80
2015,04,13,13,10,4.80
2015,04,13,13,11,4.80
2015,04,13,13,12,4.80
2015,04,13,13,13,4.80
2015,04,13,13,14,4.80
2015,04,13,13,15,4.80
2015,04,13,13,16,4.80
2015,04,13,13,17,4.90
2015,04,13,13,18,4.90
2015,04,13,13,19,4.90
2015,04,13,13,20,4.90
2015,04,13,13,21,4.90
2015,04,13,13,22,5.00
2015,04,13,13,24,5.10
2015,04,13,13,25,5.10
2015,04,13,13,26,5.20
2015,04,13,13,27,5.20
2015,04,13,13,28,5.20
2015,04,13,13,29,5.30
2015,04,13,13,30,5.30
2015,04,13,13,31,5.30
2015,04,13,13,32,5.30
2015,04,13,13,33,5.30
2015,04,13,13,34,5.30
2015,04,13,13,35,5.30
2015,04,13,13,36,5.30
2015,04,13,13,37,5.40
2015,04,13,13,38,5.40
2015,04,13,13,39,5.40
2015,04,13,13,40,5.40
2015,04,13,13,41,5.50
2015,04,13,13,42,5.50
2015,04,13,13,43,5.50
2015,04,13,13,44,5.60
2015,04,13,13,45,5.70
2015,04,13,13,46,5.70
2015,04,13,13,47,5.70
2015,04,13,13,48,5.70
2015,04,13,13,49,5.80
2015,04,13,13,50,5.80
2015,04,13,13,51,5.80
2015,04,13,13,52,5.80
2015,04,13,13,53,5.80
2015,04,13,13,54,5.80
2015,04,13,13,55,5.90
2015,04,13,13,56,5.90
2015,04,13,13,57,5.90
2015,04,13,13,58,5.90
2015,04,13,13,59,5.90
2015,04,13,14,00,6.00
2015,04,13,14,01,6.10
2015,04,13,14,02,6.10
2015,04,13,14,03,6.10
2015,04,13,14,04,6.20
2015,04,13,14,05,6.20
2015,04,13,14,06,6.20
2015,04,13,14,07,6.20
2015,04,13,14,08,6.30
2015,04,13,14,09,6.30
2015,04,13,14,10,6.30
2015,04,13,14,11,6.30
2015,04,13,14,12,6.30
2015,04,13,14,13,6.40
2015,04,13,14,14,6.40
2015,04,13,14,15,6.40
2015,04,13,14,16,6.50
2015,04,13,14,17,6.50
2015,04,13,14,18,6.60
2015,04,13,14,19,6.60
2015,04,13,14,20,6.60
2015,04,13,14,21,6.70
2015,04,13,14,22,6.70
2015,04,13,14,23,6.70
2015,04,13,14,24,6.70
2015,04,13,14,25,6.70
2015,04,13,14,26,6.70
2015,04,13,14,27,6.70
2015,04,13,14,28,6.70
2015,04,13,14,29,6.70
2015,04,13,14,30,6.70
2015,04,13,14,31,6.70
2015,04,13,14,32,6.70
2015,04,13,14,33,6.70
2015,04,13,14,34,6.70
2015,04,13,14,35,6.70
2015,04,13,14,36,6.80
2015,04,13,14,37,6.80
2015,04,13,14,38,6.80
2015,04,13,14,39,6.80
2015,04,13,14,40,6.80
2015,04,13,14,41,6.90
2015,04,13,14,42,6.90
2015,04,13,14,43,7.00
2015,04,13,14,44,7.10
2015,04,13,14,45,7.20
2015,04,13,14,46,7.20
2015,04,13,14,47,7.30
2015,04,13,14,48,7.30
2015,04,13,14,49,7.30
2015,04,13,14,50,7.30
2015,04,13,14,51,7.30
2015,04,13,14,52,7.30
2015,04,13,14,53,7.30
2015,04,13,14,54,7.30
2015,04,13,14,55,7.30
2015,04,13,14,56,7.30
2015,04,13,14,57,7.30
2015,04,13,14,58,7.20
2015,04,13,14,59,7.20
2015,04,13,15,00,7.20
2015,04,13,15,01,7.20
2015,04,13,15,02,7.20
2015,04,13,15,03,7.30
2015,04,13,15,04,7.30
2015,04,13,15,05,7.30
2015,04,13,15,06,7.30
2015,04,13,15,07,7.30
2015,04,13,15,08,7.20
2015,04,13,15,09,7.30
2015,04,13,15,10,7.30
2015,04,13,15,11,7.30
2015,04,13,15,12,7.30
2015,04,13,15,14,7.30
2015,04,13,15,15,7.30
2015,04,13,15,16,7.30
2015,04,13,15,17,7.30
2015,04,13,15,18,7.30
2015,04,13,15,19,7.40
2015,04,13,15,20,7.40
2015,04,13,15,21,7.40
2015,04,13,15,22,7.40
2015,04,13,15,23,7.40
2015,04,13,15,24,7.40
2015,04,13,15,25,7.40
2015,04,13,15,26,7.50
2015,04,13,15,27,7.60
2015,04,13,15,28,7.60
2015,04,13,15,29,7.70
2015,04,13,15,30,7.70
2015,04,13,15,31,7.80
2015,04,13,15,32,7.80
2015,04,13,15,33,7.80
2015,04,13,15,34,7.90
2015,04,13,15,35,7.90
2015,04,13,15,36,7.90
2015,04,13,15,37,7.90
2015,04,13,15,38,7.90
2015,04,13,15,39,7.90
2015,04,13,15,40,7.80
2015,04,13,15,41,7.80
2015,04,13,15,42,7.80
2015,04,13,15,43,7.80
2015,04,13,15,44,7.80
2015,04,13,15,45,7.80
2015,04,13,15,47,7.80
2015,04,13,15,48,7.80
2015,04,13,15,49,7.80
2015,04,13,15,50,7.90
2015,04,13,15,51,7.90
2015,04,13,15,52,7.90
2015,04,13,15,53,7.90
2015,04,13,15,54,8.00
2015,04,13,15,55,8.00
2015,04,13,15,56,8.10
2015,04,13,15,57,8.10
2015,04,13,15,58,8.10
2015,04,13,15,59,8.10
2015,04,13,16,00,8.10
2015,04,13,16,01,8.10
2015,04,13,16,02,8.10
2015,04,13,16,03,8.10
2015,04,13,16,04,8.10
2015,04,13,16,05,8.10
2015,04,13,16,06,8.00
2015,04,13,16,07,8.00
2015,04,13,16,08,8.00
2015,04,13,16,09,8.00
2015,04,13,16,10,8.10
2015,04,13,16,11,8.10
2015,04,13,16,12,8.10
2015,04,13,16,13,8.10
2015,04,13,16,14,8.10
2015,04,13,16,15,8.10
2015,04,13,16,16,8.10
2015,04,13,16,17,8.10
2015,04,13,16,18,8.10
2015,04,13,16,19,8.10
2015,04,13,16,20,8.10
2015,04,13,16,21,8.10
2015,04,13,16,22,8.10
2015,04,13,16,23,8.00
2015,04,13,16,24,8.00
2015,04,13,16,25,8.00
2015,04,13,16,26,8.00
2015,04,13,16,27,7.90
2015,04,13,16,28,7.90
2015,04,13,16,29,7.90
2015,04,13,16,30,7.90
2015,04,13,16,31,7.90
2015,04,13,16,32,7.90
2015,04,13,16,33,7.80
2015,04,13,16,34,7.80
2015,04,13,16,35,7.80
2015,04,13,16,36,7.80
2015,04,13,16,37,7.80
2015,04,13,16,38,7.80
2015,04,13,16,39,7.90
2015,04,13,16,40,7.90
2015,04,13,16,41,7.90
2015,04,13,16,42,7.90
2015,04,13,16,43,7.90
2015,04,13,16,44,7.90
2015,04,13,16,45,7.90
2015,04,13,16,46,7.90
2015,04,13,16,47,7.90
2015,04,13,16,48,7.90
2015,04,13,16,49,8.00
2015,04,13,16,50,8.00
2015,04,13,16,51,8.10
2015,04,13,16,52,8.10
2015,04,13,16,53,8.10
2015,04,13,16,54,8.20
2015,04,13,16,55,8.20
2015,04,13,16,56,8.20
2015,04,13,16,57,8.30
2015,04,13,16,58,8.30
2015,04,13,16,59,8.30
2015,04,13,17,00,8.30
2015,04,13,17,01,8.30
2015,04,13,17,02,8.30
2015,04,13,17,03,8.40
2015,04,13,17,04,8.40
2015,04,13,17,05,8.40
2015,04,13,17,06,8.40
2015,04,13,17,07,8.40
2015,04,13,17,08,8.40
2015,04,13,17,09,8.40
2015,04,13,17,10,8.40
2015,04,13,17,11,8.40
2015,04,13,17,12,8.40
2015,04,13,17,13,8.40
2015,04,13,17,14,8.40
2015,04,13,17,15,8.40
2015,04,13,17,16,8.40
2015,04,13,17,17,8.40
2015,04,13,17,18,8.40
2015,04,13,17,19,8.40
2015,04,13,17,20,8.50
2015,04,13,17,21,8.40
2015,04,13,17,22,8.40
2015,04,13,17,23,8.40
2015,04,13,17,24,8.40
2015,04,13,17,25,8.40
2015,04,13,17,26,8.40
2015,04,13,17,27,8.30
2015,04,13,17,28,8.30
2015,04,13,17,29,8.30
2015,04,13,17,30,8.20
2015,04,13,17,31,8.20
2015,04,13,17,32,8.20
2015,04,13,17,33,8.20
2015,04,13,17,34,8.10
2015,04,13,17,35,8.10
2015,04,13,17,36,8.10
2015,04,13,17,37,8.10
2015,04,13,17,38,8.10
2015,04,13,17,39,8.10
2015,04,13,17,40,8.10
2015,04,13,17,41,8.10
2015,04,13,17,42,8.10
2015,04,13,17,43,8.10
2015,04,13,17,44,8.10
2015,04,13,17,45,8.10
2015,04,13,17,46,8.10
2015,04,13,17,47,8.10
2015,04,13,17,48,8.10
2015,04,13,17,49,8.20
2015,04,13,17,50,8.20
2015,04,13,17,51,8.20
2015,04,13,17,52,8.20
2015,04,13,17,53,8.20
2015,04,13,17,54,8.20
2015,04,13,17,55,8.30
2015,04,13,17,56,8.30
2015,04,13,17,58,8.30
2015,04,13,17,59,8.40
2015,04,13,18,00,8.40
2015,04,13,18,01,8.40
2015,04,13,18,02,8.40
2015,04,13,18,03,8.40
2015,04,13,18,04,8.40
2015,04,13,18,05,8.40
2015,04,13,18,06,8.50
2015,04,13,18,08,8.50
2015,04,13,18,09,8.50
2015,04,13,18,10,8.50
2015,04,13,18,11,8.50
2015,04,13,18,12,8.50
2015,04,13,18,13,8.50
2015,04,13,18,14,8.50
2015,04,13,18,15,8.50
2015,04,13,18,16,8.50
2015,04,13,18,17,8.50
2015,04,13,18,18,8.40
2015,04,13,18,19,8.40
2015,04,13,18,20,8.40
2015,04,13,18,21,8.40
2015,04,13,18,22,8.40
2015,04,13,18,23,8.50
2015,04,13,18,24,8.50
2015,04,13,18,25,8.50
2015,04,13,18,26,8.50
2015,04,13,18,27,8.50
2015,04,13,18,28,8.50
2015,04,13,18,29,8.50
2015,04,13,18,30,8.40
2015,04,13,18,31,8.40
2015,04,13,18,32,8.40
2015,04,13,18,33,8.40
2015,04,13,18,34,8.40